Location: Burgberg
(50.1428°N, 11.0671°E)
Time: 02:16:00
(UTC+00:00)

Cosmos 1900 - Pass Details

Date: 26 January 2020
Orbit: 692 x 730 km, 66.1° (Epoch: 22 February)

Event Time Altitude Azimuth Distance (km) Brightness Sun altitude
Exits shadow 05:01:29 30° 313° (NW) 1,228 5.1 -18.6°
Maximum altitude 05:03:51 72° 236° (SW) 735 4.2 -18.2°
Drops below altitude 10° 05:08:43 10° 153° (SSE) 2,155 7.3 -17.4°
Sets 05:11:04 0° 151° (SSE) 3,073 8.2 -17.0°
